Location: Waco, TX
(31.5480°N, 97.1670°W)
Time: 12:38:58
(UTC-05:00)

ISS - Pass Details

Date: 21 June 2018
Orbit: 402 x 406 km, 51.6° (Epoch: 20 June)

Event Time Altitude Azimuth Distance (km) Brightness Sun altitude
Rises 16:56:51 0° 318° (NW) 2,321 0.5 44.0°
Reaches altitude 10° 16:58:57 10° 321° (NW) 1,458 -0.4 43.5°
Maximum altitude 17:02:12 65° 44° (NE) 447 -3.2 42.8°
Drops below altitude 10° 17:05:26 10° 127° (SE) 1,448 -1.3 42.1°
Sets 17:07:30 0° 130° (SE) 2,303 -0.4 41.7°
